QPF
0.04 0.03 0.03 0.03 0.02 0.03 0.03 0.02 0.02 0.02 0.02 0.02 0.02 0.01 0.01 0.01 0.01 0.02 0.03 0.03 0.03 0.03 0.03 0.03 0.04 0.05 0.05 0.05 0.06 0.06 0.05 0.04 0.05 0.05 0.04 0.04 0.04 0.04 0.05 0.04 0.04 0.05 0.05
0.03 0.03 0.03 0.02 0.02 0.02 0.02 0.02 0.02 0.02 0.02 0.02 0.01 0.01 0.01 0.01 0.02 0.02 0.03 0.02 0.01 0.02 0.02 0.02 0.03 0.03 0.02 0.03 0.04 0.05 0.04 0.04 0.05 0.05 0.04 0.03 0.03 0.03 0.03 0.03 0.03 0.04 0.04
0.04 0.02 0.02 0.02 0.01 0.01 0.02 0.02 0.01 0.01 0.02 0.01 0.01 0.01 0.01 0.01 0.02 0.02 0.02 0.02 0.01 0.01 0.01 0.01 0.02 0.02 0.02 0.02 0.02 0.03 0.03 0.03 0.03 0.03 0.03 0.02 0.02 0.02 0.03 0.03 0.03 0.03 0.03
0.04 0.03 0.02 0.01 0.01 0.01 0.01 0.01 0.01 0.01 0.01 0.01 0.01 0.01 0.00 0.01 0.02 0.02 0.02 0.02 0.01 0.01 0.01 0.01 0.01 0.01 0.01 0.01 0.01 0.02 0.02 0.02 0.02 0.03 0.02 0.02 0.02 0.02 0.02 0.03 0.02 0.02 0.02
0.04 0.05 0.03 0.01 0.01 0.01 0.01 0.01 0.01 0.00 0.00 0.01 0.01 0.01 0.00 0.01 0.01 0.02 0.02 0.02 0.01 0.01 0.00 0.00 0.01 0.01 0.01 0.02 0.02 0.02 0.03 0.03 0.03 0.02 0.02 0.02 0.02 0.02 0.02 0.02 0.02 0.02 0.02
0.04 0.05 0.03 0.01 0.01 0.01 0.01 0.01 0.01 0.01 0.00 0.00 0.00 0.00 0.00 0.01 0.02 0.02 0.02 0.02 0.02 0.01 0.00 0.00 0.00 0.00 0.01 0.01 0.02 0.03 0.04 0.05 0.05 0.04 0.03 0.03 0.02 0.02 0.02 0.02 0.03 0.02 0.03
0.03 0.03 0.03 0.01 0.01 0.01 0.01 0.01 0.01 0.01 0.00 0.00 0.00 0.00 0.00 0.00 0.01 0.02 0.02 0.03 0.02 0.01 0.00 0.00 0.00 0.00 0.01 0.01 0.01 0.02 0.02 0.03 0.03 0.04 0.04 0.03 0.02 0.02 0.02 0.03 0.03 0.03 0.03
0.03 0.03 0.03 0.02 0.01 0.01 0.02 0.01 0.01 0.01 0.00 0.00 0.00 0.00 0.00 0.00 0.00 0.01 0.02 0.02 0.01 0.00 0.00 0.00 0.00 0.00 0.00 0.01 0.01 0.02 0.02 0.02 0.02 0.02 0.02 0.02 0.02 0.02 0.03 0.04 0.05 0.04 0.03
0.02 0.03 0.03 0.02 0.01 0.01 0.01 0.01 0.01 0.01 0.01 0.01 0.00 0.00 0.00 0.00 0.00 0.01 0.03 0.01 0.01 0.00 0.00 0.00 0.00 0.00 0.00 0.02 0.02 0.02 0.01 0.02 0.02 0.02 0.03 0.02 0.03 0.03 0.03 0.03 0.04 0.04 0.03
0.02 0.02 0.02 0.02 0.01 0.01 0.01 0.01 0.01 0.01 0.01 0.01 0.01 0.01 0.00 0.00 0.00 0.01 0.02 0.02 0.01 0.01 0.00 0.00 0.00 0.01 0.01 0.02 0.03 0.02 0.02 0.02 0.02 0.02 0.02 0.02 0.02 0.02 0.03 0.03 0.04 0.05 0.04
0.01 0.01 0.01 0.01 0.02 0.01 0.01 0.01 0.01 0.01 0.01 0.01 0.01 0.01 0.01 0.01 0.00 0.01 0.02 0.02 0.02 0.02 0.01 0.00 0.00 0.01 0.02 0.02 0.02 0.02 0.03 0.02 0.02 0.02 0.02 0.01 0.02 0.02 0.02 0.02 0.03 0.04 0.04
0.01 0.01 0.01 0.01 0.02 0.02 0.02 0.02 0.02 0.01 0.01 0.01 0.01 0.01 0.01 0.01 0.01 0.01 0.01 0.02 0.02 0.03 0.01 0.01 0.01 0.01 0.02 0.02 0.02 0.01 0.02 0.02 0.02 0.02 0.02 0.01 0.01 0.02 0.02 0.02 0.02 0.03 0.03
0.00 0.01 0.01 0.01 0.01 0.02 0.02 0.03 0.02 0.02 0.01 0.01 0.01 0.01 0.01 0.01 0.01 0.01 0.01 0.02 0.02 0.02 0.01 0.01 0.01 0.02 0.01 0.01 0.01 0.01 0.01 0.01 0.01 0.01 0.01 0.01 0.01 0.01 0.01 0.01 0.02 0.02 0.02
0.00 0.00 0.01 0.01 0.01 0.02 0.02 0.02 0.02 0.02 0.01 0.01 0.01 0.01 0.01 0.01 0.01 0.01 0.02 0.02 0.02 0.02 0.02 0.02 0.02 0.01 0.01 0.01 0.01 0.01 0.01 0.01 0.01 0.01 0.01 0.01 0.01 0.01 0.01 0.01 0.02 0.02 0.02
0.00 0.00 0.01 0.01 0.01 0.02 0.02 0.02 0.02 0.02 0.02 0.03 0.03 0.03 0.02 0.02 0.02 0.03 0.05 0.05 0.04 0.04 0.05 0.04 0.02 0.02 0.01 0.01 0.01 0.01 0.01 0.01 0.01 0.01 0.01 0.01 0.01 0.01 0.01 0.01 0.02 0.02 0.02
0.01 0.01 0.01 0.01 0.01 0.02 0.02 0.02 0.02 0.02 0.02 0.03 0.03 0.03 0.03 0.04 0.04 0.05 0.05 0.05 0.05 0.04 0.04 0.04 0.03 0.02 0.02 0.02 0.02 0.02 0.01 0.01 0.01 0.01 0.02 0.01 0.01 0.01 0.01 0.01 0.02 0.02 0.02
0.01 0.01 0.01 0.01 0.01 0.02 0.02 0.02 0.02 0.03 0.02 0.02 0.02 0.02 0.02 0.03 0.04 0.04 0.04 0.04 0.03 0.03 0.03 0.02 0.03 0.03 0.02 0.02 0.02 0.02 0.02 0.01 0.01 0.01 0.02 0.02 0.02 0.02 0.01 0.01 0.01 0.02 0.01
0.01 0.01 0.01 0.01 0.01 0.01 0.02 0.02 0.02 0.02 0.02 0.03 0.03 0.02 0.01 0.02 0.03 0.04 0.04 0.04 0.03 0.02 0.02 0.02 0.02 0.03 0.03 0.03 0.02 0.02 0.02 0.02 0.02 0.02 0.02 0.02 0.02 0.02 0.02 0.01 0.01 0.01 0.01
0.01 0.01 0.01 0.02 0.02 0.02 0.01 0.02 0.02 0.02 0.02 0.02 0.03 0.02 0.01 0.02 0.02 0.03 0.04 0.04 0.03 0.02 0.02 0.02 0.02 0.03 0.03 0.03 0.02 0.02 0.02 0.02 0.02 0.03 0.03 0.03 0.02 0.03 0.02 0.02 0.02 0.02 0.02
0.00 0.01 0.02 0.02 0.02 0.01 0.01 0.01 0.01 0.01 0.01 0.01 0.01 0.02 0.02 0.02 0.02 0.02 0.04 0.04 0.04 0.03 0.03 0.02 0.02 0.02 0.03 0.02 0.02 0.02 0.02 0.02 0.02 0.02 0.02 0.03 0.03 0.03 0.03 0.03 0.03 0.03 0.02
0.01 0.01 0.01 0.01 0.02 0.01 0.01 0.01 0.01 0.01 0.01 0.01 0.01 0.01 0.02 0.03 0.02 0.02 0.02 0.03 0.04 0.04 0.03 0.03 0.02 0.02 0.02 0.02 0.02 0.02 0.02 0.02 0.02 0.02 0.02 0.02 0.03 0.03 0.03 0.03 0.03 0.03 0.02
0.01 0.01 0.01 0.01 0.01 0.01 0.01 0.01 0.01 0.01 0.01 0.01 0.01 0.01 0.01 0.01 0.01 0.01 0.01 0.01 0.02 0.02 0.02 0.02 0.02 0.02 0.02 0.02 0.02 0.02 0.02 0.02 0.02 0.02 0.02 0.02 0.02 0.02 0.02 0.03 0.03 0.03 0.03
0.01 0.01 0.01 0.01 0.01 0.01 0.01 0.01 0.01 0.01 0.01 0.01 0.01 0.01 0.01 0.01 0.01 0.01 0.01 0.01 0.01 0.01 0.01 0.01 0.01 0.01 0.01 0.01 0.01 0.02 0.02 0.02 0.01 0.02 0.02 0.02 0.02 0.02 0.02 0.03 0.03 0.03 0.03
0.01 0.01 0.01 0.01 0.01 0.01 0.01 0.01 0.01 0.01 0.01 0.01 0.01 0.01 0.01 0.01 0.01 0.01 0.01 0.01 0.01 0.01 0.01 0.01 0.01 0.01 0.01 0.01 0.01 0.02 0.02 0.01 0.02 0.02 0.02 0.02 0.02 0.02 0.03 0.03 0.03 0.03 0.03
0.01 0.01 0.01 0.01 0.01 0.01 0.01 0.01 0.01 0.01 0.01 0.01 0.01 0.01 0.01 0.01 0.01 0.01 0.01 0.01 0.01 0.01 0.01 0.01 0.01 0.01 0.01 0.01 0.01 0.01 0.01 0.02 0.02 0.03 0.03 0.03 0.03 0.03 0.03 0.03 0.03 0.03 0.03
0.01 0.01 0.01 0.01 0.01 0.01 0.01 0.01 0.01 0.01 0.01 0.01 0.01 0.01 0.01 0.01 0.01 0.01 0.01 0.01 0.01 0.01 0.01 0.01 0.01 0.01 0.01 0.01 0.01 0.02 0.02 0.02 0.02 0.02 0.04 0.04 0.04 0.03 0.03 0.03 0.03 0.03 0.03
MSLP
1023.40 1023.72 1023.93 1024.05 1024.11 1024.12 1024.12 1024.11 1024.09 1024.07 1024.02 1023.92 1023.75 1023.52 1023.23 1022.89 1022.53 1022.17 1021.84 1021.54 1021.27 1021.00 1020.72 1020.38 1019.96 1019.44 1018.82 1018.11 1017.31 1016.45 1015.54 1014.59 1013.59 1012.52 1011.37 1010.14 1008.84 1007.50 1006.17 1004.94 1003.89 1003.11 1002.66
1023.66 1023.92 1024.07 1024.13 1024.14 1024.12 1024.10 1024.08 1024.08 1024.07 1024.02 1023.92 1023.74 1023.48 1023.14 1022.74 1022.32 1021.89 1021.50 1021.15 1020.84 1020.55 1020.25 1019.92 1019.53 1019.05 1018.49 1017.85 1017.15 1016.40 1015.63 1014.83 1014.01 1013.15 1012.23 1011.24 1010.19 1009.10 1008.02 1007.02 1006.17 1005.54 1005.21
1023.90 1024.10 1024.19 1024.19 1024.14 1024.08 1024.04 1024.02 1024.02 1024.01 1023.97 1023.86 1023.66 1023.37 1022.99 1022.54 1022.07 1021.59 1021.15 1020.76 1020.42 1020.12 1019.83 1019.52 1019.16 1018.73 1018.22 1017.65 1017.04 1016.40 1015.75 1015.10 1014.44 1013.78 1013.08 1012.33 1011.53 1010.70 1009.88 1009.12 1008.47 1008.02 1007.81
1024.12 1024.25 1024.27 1024.21 1024.12 1024.03 1023.97 1023.94 1023.93 1023.91 1023.86 1023.74 1023.52 1023.19 1022.77 1022.29 1021.77 1021.26 1020.80 1020.39 1020.04 1019.75 1019.47 1019.19 1018.87 1018.49 1018.05 1017.55 1017.01 1016.45 1015.91 1015.38 1014.86 1014.36 1013.84 1013.31 1012.74 1012.16 1011.57 1011.04 1010.60 1010.31 1010.22
1024.28 1024.35 1024.31 1024.21 1024.09 1023.98 1023.90 1023.86 1023.84 1023.81 1023.73 1023.58 1023.33 1022.97 1022.52 1022.00 1021.46 1020.92 1020.44 1020.03 1019.70 1019.42 1019.18 1018.94 1018.66 1018.34 1017.96 1017.52 1017.05 1016.57 1016.10 1015.65 1015.24 1014.86 1014.49 1014.12 1013.75 1013.36 1012.99 1012.66 1012.41 1012.28 1012.29
1024.41 1024.41 1024.33 1024.20 1024.06 1023.94 1023.86 1023.80 1023.77 1023.72 1023.62 1023.44 1023.15 1022.75 1022.26 1021.71 1021.14 1020.59 1020.11 1019.70 1019.39 1019.14 1018.94 1018.74 1018.52 1018.25 1017.93 1017.55 1017.13 1016.70 1016.29 1015.90 1015.56 1015.26 1015.00 1014.75 1014.52 1014.30 1014.10 1013.95 1013.86 1013.86 1013.97
1024.50 1024.46 1024.35 1024.20 1024.06 1023.94 1023.86 1023.80 1023.75 1023.68 1023.54 1023.32 1022.99 1022.55 1022.02 1021.44 1020.85 1020.30 1019.81 1019.42 1019.12 1018.90 1018.73 1018.58 1018.40 1018.19 1017.91 1017.58 1017.21 1016.83 1016.46 1016.11 1015.82 1015.57 1015.38 1015.22 1015.10 1015.01 1014.95 1014.93 1014.97 1015.08 1015.29
1024.59 1024.50 1024.37 1024.23 1024.09 1023.99 1023.91 1023.85 1023.78 1023.68 1023.52 1023.25 1022.88 1022.40 1021.84 1021.23 1020.62 1020.06 1019.57 1019.18 1018.89 1018.69 1018.55 1018.42 1018.29 1018.11 1017.88 1017.59 1017.26 1016.92 1016.58 1016.28 1016.02 1015.82 1015.68 1015.60 1015.56 1015.56 1015.60 1015.69 1015.84 1016.05 1016.33
1024.69 1024.57 1024.43 1024.29 1024.16 1024.06 1023.99 1023.93 1023.85 1023.72 1023.52 1023.22 1022.80 1022.29 1021.70 1021.08 1020.46 1019.89 1019.40 1019.01 1018.73 1018.53 1018.39 1018.28 1018.16 1018.01 1017.81 1017.56 1017.27 1016.97 1016.68 1016.42 1016.21 1016.06 1015.97 1015.95 1015.98 1016.06 1016.19 1016.36 1016.59 1016.87 1017.21
1024.83 1024.68 1024.52 1024.38 1024.25 1024.16 1024.08 1024.01 1023.91 1023.76 1023.52 1023.18 1022.74 1022.21 1021.61 1020.98 1020.36 1019.79 1019.30 1018.91 1018.63 1018.42 1018.28 1018.16 1018.04 1017.90 1017.72 1017.50 1017.25 1017.00 1016.76 1016.56 1016.41 1016.33 1016.31 1016.35 1016.45 1016.60 1016.80 1017.04 1017.33 1017.66 1018.04
1025.02 1024.83 1024.65 1024.48 1024.35 1024.25 1024.16 1024.06 1023.93 1023.75 1023.48 1023.12 1022.66 1022.12 1021.53 1020.91 1020.30 1019.75 1019.27 1018.89 1018.60 1018.38 1018.22 1018.09 1017.96 1017.81 1017.65 1017.45 1017.25 1017.05 1016.88 1016.75 1016.68 1016.67 1016.73 1016.84 1017.01 1017.23 1017.48 1017.78 1018.10 1018.47 1018.87
1025.24 1025.01 1024.79 1024.60 1024.43 1024.30 1024.18 1024.05 1023.89 1023.67 1023.38 1023.00 1022.54 1022.01 1021.44 1020.85 1020.28 1019.76 1019.31 1018.94 1018.65 1018.42 1018.25 1018.10 1017.95 1017.80 1017.64 1017.47 1017.31 1017.17 1017.06 1017.01 1017.02 1017.10 1017.24 1017.43 1017.67 1017.95 1018.25 1018.58 1018.94 1019.32 1019.72
1025.49 1025.20 1024.92 1024.68 1024.47 1024.29 1024.13 1023.96 1023.76 1023.52 1023.21 1022.83 1022.37 1021.87 1021.33 1020.79 1020.27 1019.80 1019.39 1019.05 1018.77 1018.56 1018.37 1018.21 1018.06 1017.90 1017.75 1017.60 1017.48 1017.39 1017.35 1017.37 1017.46 1017.62 1017.84 1018.10 1018.40 1018.73 1019.07 1019.43 1019.80 1020.17 1020.57
1025.72 1025.35 1025.02 1024.72 1024.46 1024.23 1024.02 1023.81 1023.57 1023.30 1022.97 1022.59 1022.16 1021.69 1021.20 1020.72 1020.26 1019.86 1019.51 1019.22 1018.98 1018.78 1018.61 1018.45 1018.30 1018.15 1018.00 1017.88 1017.79 1017.74 1017.76 1017.84 1018.00 1018.22 1018.50 1018.83 1019.17 1019.54 1019.90 1020.27 1020.64 1021.01 1021.38
1025.87 1025.44 1025.04 1024.69 1024.38 1024.11 1023.86 1023.61 1023.35 1023.06 1022.72 1022.35 1021.93 1021.50 1021.07 1020.65 1020.27 1019.94 1019.66 1019.43 1019.24 1019.08 1018.94 1018.81 1018.68 1018.54 1018.42 1018.31 1018.25 1018.24 1018.29 1018.42 1018.62 1018.89 1019.21 1019.57 1019.94 1020.32 1020.70 1021.07 1021.43 1021.78 1022.12
1025.90 1025.42 1024.98 1024.59 1024.25 1023.96 1023.68 1023.42 1023.14 1022.84 1022.51 1022.14 1021.75 1021.36 1020.97 1020.61 1020.30 1020.04 1019.84 1019.68 1019.56 1019.46 1019.36 1019.27 1019.17 1019.07 1018.97 1018.89 1018.85 1018.87 1018.95 1019.10 1019.32 1019.61 1019.94 1020.31 1020.69 1021.07 1021.44 1021.80 1022.14 1022.47 1022.79
1025.80 1025.28 1024.83 1024.43 1024.09 1023.80 1023.53 1023.27 1023.00 1022.70 1022.37 1022.02 1021.65 1021.29 1020.94 1020.64 1020.38 1020.19 1020.05 1019.96 1019.91 1019.87 1019.84 1019.80 1019.75 1019.69 1019.63 1019.59 1019.57 1019.60 1019.70 1019.85 1020.08 1020.36 1020.68 1021.04 1021.40 1021.77 1022.12 1022.46 1022.78 1023.08 1023.37
1025.57 1025.06 1024.62 1024.25 1023.94 1023.68 1023.44 1023.21 1022.96 1022.68 1022.37 1022.03 1021.68 1021.34 1021.02 1020.75 1020.54 1020.39 1020.31 1020.28 1020.28 1020.31 1020.34 1020.36 1020.37 1020.36 1020.35 1020.34 1020.35 1020.40 1020.50 1020.65 1020.86 1021.12 1021.42 1021.75 1022.09 1022.43 1022.76 1023.07 1023.36 1023.64 1023.90
1025.27 1024.80 1024.40 1024.09 1023.84 1023.64 1023.45 1023.26 1023.05 1022.80 1022.51 1022.19 1021.86 1021.53 1021.23 1020.98 1020.79 1020.67 1020.62 1020.63 1020.68 1020.76 1020.85 1020.93 1021.00 1021.04 1021.07 1021.10 1021.14 1021.20 1021.30 1021.45 1021.64 1021.88 1022.14 1022.44 1022.75 1023.05 1023.35 1023.63 1023.89 1024.14 1024.38
1025.00 1024.58 1024.26 1024.02 1023.84 1023.71 1023.59 1023.45 1023.28 1023.06 1022.80 1022.50 1022.18 1021.86 1021.56 1021.32 1021.14 1021.03 1020.99 1021.03 1021.11 1021.23 1021.36 1021.48 1021.59 1021.68 1021.76 1021.82 1021.89 1021.96 1022.07 1022.21 1022.38 1022.59 1022.83 1023.09 1023.36 1023.63 1023.90 1024.15 1024.38 1024.60 1024.80
1024.85 1024.51 1024.26 1024.09 1023.99 1023.91 1023.84 1023.76 1023.63 1023.44 1023.21 1022.93 1022.62 1022.31 1022.02 1021.77 1021.59 1021.48 1021.44 1021.48 1021.57 1021.70 1021.84 1022.00 1022.13 1022.26 1022.36 1022.45 1022.54 1022.64 1022.75 1022.88 1023.04 1023.23 1023.45 1023.68 1023.92 1024.16 1024.39 1024.60 1024.81 1024.99 1025.17
1024.91 1024.64 1024.45 1024.34 1024.28 1024.25 1024.22 1024.16 1024.06 1023.91 1023.70 1023.44 1023.15 1022.85 1022.56 1022.32 1022.12 1022.00 1021.95 1021.97 1022.05 1022.17 1022.32 1022.47 1022.61 1022.75 1022.87 1022.97 1023.07 1023.17 1023.29 1023.42 1023.58 1023.76 1023.95 1024.16 1024.38 1024.59 1024.79 1024.98 1025.15 1025.31 1025.44
1025.25 1025.02 1024.87 1024.77 1024.72 1024.70 1024.67 1024.62 1024.53 1024.40 1024.20 1023.97 1023.70 1023.42 1023.15 1022.91 1022.72 1022.58 1022.52 1022.51 1022.56 1022.65 1022.77 1022.90 1023.02 1023.14 1023.25 1023.35 1023.45 1023.55 1023.66 1023.79 1023.95 1024.12 1024.31 1024.51 1024.71 1024.90 1025.08 1025.24 1025.39 1025.51 1025.62
1025.85 1025.63 1025.47 1025.35 1025.28 1025.22 1025.16 1025.09 1025.00 1024.86 1024.68 1024.47 1024.23 1023.97 1023.72 1023.50 1023.31 1023.17 1023.09 1023.05 1023.07 1023.11 1023.18 1023.27 1023.36 1023.44 1023.52 1023.59 1023.67 1023.76 1023.86 1023.98 1024.13 1024.30 1024.48 1024.68 1024.87 1025.06 1025.23 1025.38 1025.50 1025.60 1025.68
1026.65 1026.40 1026.19 1026.01 1025.87 1025.75 1025.64 1025.52 1025.40 1025.25 1025.08 1024.89 1024.67 1024.45 1024.23 1024.03 1023.85 1023.71 1023.61 1023.55 1023.52 1023.52 1023.54 1023.56 1023.59 1023.62 1023.65 1023.69 1023.73 1023.80 1023.88 1023.99 1024.12 1024.29 1024.47 1024.67 1024.87 1025.06 1025.23 1025.37 1025.49 1025.58 1025.65
1027.54 1027.23 1026.94 1026.67 1026.44 1026.23 1026.04 1025.87 1025.71 1025.54 1025.37 1025.19 1025.00 1024.81 1024.62 1024.44 1024.28 1024.14 1024.02 1023.94 1023.87 1023.82 1023.78 1023.74 1023.71 1023.68 1023.66 1023.64 1023.65 1023.67 1023.73 1023.81 1023.94 1024.10 1024.28 1024.49 1024.69 1024.90 1025.08 1025.24 1025.37 1025.47 1025.54
Thickness
5392 5388 5384 5381 5378 5375 5372 5369 5367 5364 5362 5360 5357 5356 5354 5353 5353 5352 5350 5348 5347 5347 5346 5346 5347 5347 5348 5348 5349 5350 5353 5355 5360 5367 5369 5372 5376 5380 5386 5390 5394 5401 5407
5381 5377 5373 5369 5366 5362 5360 5357 5355 5353 5350 5348 5345 5343 5342 5340 5340 5338 5337 5336 5334 5334 5334 5333 5334 5334 5334 5334 5335 5337 5339 5341 5345 5351 5354 5357 5360 5365 5370 5374 5379 5385 5391
5370 5365 5361 5357 5354 5351 5348 5346 5344 5341 5338 5335 5333 5332 5330 5328 5327 5326 5325 5324 5323 5322 5322 5321 5321 5320 5321 5322 5323 5325 5326 5329 5331 5335 5340 5342 5346 5349 5354 5360 5365 5370 5375
5357 5353 5350 5346 5343 5340 5337 5335 5332 5330 5327 5324 5322 5320 5318 5316 5315 5314 5313 5313 5312 5311 5311 5310 5309 5310 5310 5311 5312 5313 5315 5316 5319 5322 5326 5329 5332 5336 5339 5344 5351 5355 5361
5345 5342 5338 5335 5332 5329 5326 5323 5321 5318 5316 5313 5311 5309 5307 5305 5304 5303 5302 5302 5302 5301 5300 5299 5299 5300 5301 5302 5303 5304 5304 5306 5308 5311 5315 5318 5321 5323 5326 5330 5335 5341 5346
5333 5330 5327 5324 5321 5318 5315 5312 5310 5307 5304 5302 5299 5297 5296 5295 5294 5294 5293 5293 5292 5291 5290 5289 5289 5289 5291 5292 5293 5294 5295 5296 5299 5302 5305 5307 5310 5311 5314 5317 5321 5326 5333
5322 5319 5316 5313 5310 5307 5305 5302 5299 5296 5293 5290 5288 5286 5285 5284 5284 5284 5283 5282 5281 5280 5280 5279 5279 5280 5280 5280 5282 5284 5284 5286 5289 5291 5294 5296 5299 5302 5303 5306 5308 5310 5316
5310 5308 5305 5302 5299 5297 5294 5291 5288 5285 5282 5280 5277 5276 5274 5273 5273 5274 5274 5272 5270 5270 5269 5269 5269 5270 5270 5271 5273 5274 5274 5276 5279 5281 5284 5287 5289 5290 5292 5294 5296 5298 5302
5299 5297 5294 5291 5289 5286 5283 5280 5277 5274 5272 5269 5268 5266 5264 5263 5263 5264 5264 5262 5261 5260 5260 5260 5260 5261 5262 5264 5265 5265 5266 5268 5270 5271 5274 5277 5279 5281 5281 5282 5283 5285 5291
5289 5286 5283 5281 5278 5276 5273 5270 5267 5264 5262 5261 5259 5257 5255 5254 5254 5255 5254 5253 5252 5252 5251 5251 5252 5253 5254 5255 5255 5256 5257 5259 5260 5262 5264 5267 5268 5269 5270 5271 5272 5273 5276
5278 5276 5273 5271 5268 5265 5263 5260 5257 5254 5252 5250 5249 5248 5246 5246 5246 5246 5245 5243 5243 5243 5243 5243 5244 5245 5246 5247 5248 5247 5248 5250 5250 5251 5253 5255 5257 5258 5259 5259 5260 5261 5264
5268 5265 5263 5260 5258 5256 5253 5250 5247 5245 5242 5240 5239 5239 5238 5237 5237 5237 5237 5236 5236 5234 5235 5235 5236 5237 5239 5239 5239 5240 5240 5240 5240 5241 5242 5244 5246 5247 5248 5249 5250 5251 5253
5257 5255 5253 5250 5248 5246 5243 5241 5239 5236 5235 5234 5233 5232 5231 5231 5229 5229 5229 5229 5228 5227 5227 5229 5230 5230 5231 5230 5230 5231 5231 5229 5229 5230 5231 5233 5235 5236 5237 5238 5240 5241 5243
5247 5245 5243 5241 5239 5237 5235 5234 5232 5229 5227 5227 5226 5226 5225 5224 5223 5222 5221 5221 5221 5221 5220 5221 5221 5221 5220 5221 5221 5220 5220 5219 5220 5220 5221 5223 5224 5226 5227 5228 5229 5231 5233
5238 5236 5234 5233 5230 5229 5228 5226 5224 5223 5221 5221 5220 5219 5218 5218 5217 5218 5217 5217 5216 5215 5214 5213 5212 5211 5210 5210 5211 5211 5210 5210 5210 5211 5212 5213 5215 5216 5217 5218 5219 5221 5223
5230 5228 5226 5225 5223 5222 5220 5219 5218 5217 5217 5216 5215 5214 5213 5212 5212 5211 5211 5210 5210 5209 5207 5204 5203 5202 5201 5201 5201 5202 5202 5202 5202 5202 5202 5203 5204 5206 5208 5209 5210 5211 5214
5221 5220 5219 5218 5216 5215 5213 5212 5211 5210 5209 5209 5208 5207 5206 5206 5205 5204 5203 5203 5202 5201 5197 5196 5194 5194 5193 5193 5193 5193 5193 5194 5193 5193 5193 5194 5194 5196 5198 5199 5201 5202 5205
5213 5213 5212 5210 5209 5207 5206 5204 5203 5202 5201 5200 5199 5199 5199 5198 5197 5196 5195 5194 5192 5190 5189 5187 5187 5186 5185 5185 5185 5185 5185 5186 5185 5185 5185 5186 5186 5187 5189 5191 5192 5194 5196
5206 5205 5204 5203 5202 5200 5198 5197 5195 5194 5193 5192 5191 5191 5190 5190 5189 5188 5186 5184 5182 5181 5180 5178 5178 5177 5177 5176 5177 5177 5178 5178 5178 5178 5178 5178 5179 5179 5181 5183 5185 5188 5189
5199 5199 5198 5196 5195 5193 5191 5189 5188 5186 5185 5183 5182 5182 5181 5181 5180 5178 5176 5175 5174 5173 5171 5171 5171 5170 5170 5169 5169 5170 5170 5171 5171 5171 5171 5172 5172 5173 5175 5177 5179 5180 5183
5192 5191 5191 5189 5186 5185 5183 5182 5180 5178 5177 5176 5175 5174 5175 5174 5172 5170 5168 5167 5166 5165 5164 5164 5164 5163 5163 5163 5163 5163 5163 5165 5165 5165 5165 5165 5166 5167 5170 5172 5174 5175 5176
5185 5183 5182 5180 5178 5176 5176 5174 5173 5171 5170 5169 5168 5167 5168 5166 5164 5163 5162 5161 5160 5159 5159 5158 5158 5157 5157 5156 5157 5158 5158 5159 5159 5159 5159 5160 5161 5163 5165 5167 5169 5170 5172
5177 5175 5174 5172 5170 5170 5168 5166 5165 5164 5163 5162 5161 5160 5159 5158 5157 5156 5156 5155 5154 5154 5154 5154 5153 5153 5152 5152 5153 5153 5154 5155 5155 5155 5155 5156 5158 5159 5161 5163 5165 5166 5169
5170 5168 5166 5165 5163 5161 5160 5159 5158 5157 5156 5155 5154 5153 5152 5151 5150 5150 5150 5149 5149 5149 5149 5148 5148 5149 5149 5149 5150 5150 5150 5151 5151 5152 5153 5153 5155 5156 5158 5160 5162 5164 5166
5163 5161 5159 5157 5156 5155 5153 5153 5152 5151 5150 5149 5148 5147 5146 5145 5145 5144 5144 5144 5144 5145 5145 5145 5145 5145 5146 5146 5147 5149 5150 5150 5151 5151 5152 5152 5153 5154 5156 5158 5159 5161 5163
5156 5154 5152 5151 5149 5148 5147 5147 5146 5145 5143 5143 5142 5141 5141 5140 5140 5139 5139 5139 5139 5140 5141 5142 5142 5143 5143 5144 5146 5147 5148 5149 5150 5151 5151 5151 5152 5153 5154 5156 5157 5158 5160